Regional Weather Roundup
Issued by NWS Newport/Morehead, NC

Current Version | Previous Version | Graphics & Text | Print | Product List | Glossary Off
Versions: 1 2 3 4 5 6 7 8 9 10 11 12 13 14 15 16 17 18 19 20 21 22 23 24 25 26 27 28 29 30 31 32 33 34 35 36 37 38 39 40 41 42 43 44 45 46 47 48 49 50

000
ASUS42 KMHX 282022
RWRMHX
WEATHER ROUNDUP FOR EASTERN NORTH CAROLINA
NATIONAL WEATHER SERVICE NEWPORT/MOREHEAD CITY NC
300 PM EST SUN DEC 28 2014

NOTE: "FAIR" INDICATES FEW OR NO CLOUDS BELOW 12,000 FEET
WITH NO SIGNIFICANT WEATHER AND/OR OBSTRUCTIONS TO VISIBILITY

NCZ015>017-031-032-045>047-102-103-282100-
NORTH COAST

CITY           SKY/WX    TMP DP  RH WIND       PRES   REMARKS
EDENTON        DRIZZLE   63  55  77 W8        30.02R
ELIZABETH CITY PTSUNNY   69  56  62 W15       29.99S
KITTY HAWK     CLOUDY    63  56  79 SW8       29.99S
MANTEO         CLOUDY    61  54  77 SW3       30.01S

$$

NCZ045>047-081-094-103-104-282100-
CENTRAL COAST

CITY           SKY/WX    TMP DP  RH WIND       PRES   REMARKS
FRISCO         CLOUDY    61  57  87 CALM      30.03R
SWANQUARTER      N/A     66 N/A N/A W5        29.97S

$$

NCZ095-097-098-100-101-282100-
SOUTHERN COAST

CITY           SKY/WX    TMP DP  RH WIND       PRES   REMARKS
BEAUFORT       MOSUNNY   65  58  78 SW13      30.02F
CEDAR ISLAND     N/A     70 N/A N/A SW9G17    30.06S
JACKSONVILLE   MOSUNNY   74  57  55 SW10      30.00F
PINEY ISLAND   PTCLDY    74  58  57 SW13      30.01S
WILMINGTON     MOSUNNY   74  59  59 SW14G22   30.01S


$$

NCZ011>013-027>030-043-044-078>080-089-090>093-098-282100-
COASTAL PLAIN

CITY           SKY/WX    TMP DP  RH WIND       PRES   REMARKS
AHOSKIE        CLOUDY    63  56  78 CALM      29.99S
CLINTON        CLOUDY    67  60  78 W7        30.01S
ELIZABETHTOWN  PTSUNNY   72  59  63 W7        30.01R
GOLDSBORO      CLOUDY    64  63  97 W2        29.99F
GREENVILLE     CLOUDY    64  57  77 W6        30.03S
HAVELOCK       MOSUNNY   72  58  61 SW5       30.02S
KENANSVILLE    PTSUNNY   69  57  67 W6        30.02R
KINSTON        NOT AVBL
NEW BERN       CLOUDY    74  58  57 SW9       30.01F
RICHLANDS      PTSUNNY   73  57  56 SW5       30.00S
ROCKY MOUNT    CLOUDY    62  56  80 S7        30.00F
WASHINGTON     CLOUDY    64  56  75 W8        30.02S
WHITEVILLE     MOSUNNY   75  59  57 SW10G17   30.00S

$$

AMZ130-135-150-152-154-156-158-170-250-252-270-ANZ085-086-088-633-658-670-282100-
MARINE OBSERVATIONS

STATION/POSITION TIME  TEMP    WIND        PRES    WAVE   SWELL
                       AIR SEA DIR/SP/G            HT/PER HT/PER
                 (UTC) (F)     (DEG/KT/KT) (MB)    (FT/S) (FT/S)
CHESAPEAKE LIGHT 2000   60     240/ 16/ 16 1015.1
64 E VA BEACH    2000   56 53  220/ 12/ 14 1014.9    3/13   3/13
DUCK             2000   62 49  240/ 11/ 13 1015.0
2 E DUCK         2000      49                N/A     2/14   2/14
10 NE DUCK       2000      51                N/A     2/13   2/13
OREGON INLET     2000   56 53  200/  6/  7 1016.4
13E OREGON INLT  2000      55                N/A     3/13   2/13
HATTERAS CG      2000   65 54  230/  5/  7 1017.0
DIAMOND BUOY     2000   70                 1016.7    4/ 4
17 S OCRACOKE    NOT AVBL
CAPE LOOKOUT     2000   64     230/  6/  9 1016.7
BEAUFORT LAB     2000   65 55  210/  5/  8 1015.6
30 SE NEW RIVER  2000   62 61  220/  8/ 10 1017.4    2/12   2/12
5 SE WRIGHTSVLE  NOT AVBL
225 S CAPE HAT   1900   74 75  220/ 17/ 21 1019.4    5/13   3/13
41 SE CHARLESTON 2000   73 74  220/ 12/ 14 1016.9    3/14   2/14

$$


USA.gov is the U.S. government's official web portal to all federal, state and local government web resources and services.